Date String (YYYY-MM-DD hh:mm:ss) UTC,Instrument flags,Ambient pressure (hPa),Sample flow (lpm),Bypass flow (lpm),Sample temperature (°C),Ambient temperature (°C),ASC tube jacket temperature (°C),LED temperature (°C),Box temperature (°C),Sample RH (%),Span deviation,Mass concentration (μg/m³),Mass concentration (μg/m³),Mass concentration (μg/m³)
DateTimeUTC,F1_M11,P_M11,Q1_M11,Q2_M11,T1_M11,T2_M11,T3_M11,T4_M11,T5_M11,U1_M11,ZSPAN_M11,X0_M11,X2_M11,X1_M11
2021-12-07 03:00:00,,0819.1,4.99,0.00,22.3,21.6,00.0,31.3,23.9,06.9,0000.0,0024.42,0005.77,0003.27
2021-12-07 03:01:00,,0819.0,5.01,0.00,22.3,21.6,00.0,31.3,23.9,07.0,0000.0,0023.62,0005.83,0003.26
2021-12-07 03:02:00,,0819.0,5.00,0.00,22.3,21.5,00.0,31.3,23.9,07.0,0000.0,0024.32,0005.95,0003.24
2021-12-07 03:03:00,,0819.0,4.99,0.00,22.2,21.5,00.0,31.3,23.9,07.0,0000.0,0025.38,0006.06,0003.22
2021-12-07 03:04:00,,0819.1,5.00,0.00,22.3,21.5,00.0,31.3,23.9,07.0,0000.0,0024.89,0006.15,0003.19
2021-12-07 03:05:00,,0819.0,5.00,0.00,22.2,21.5,00.0,31.3,24.0,07.0,0000.0,0026.12,0006.23,0003.16
2021-12-07 03:06:00,,0819.0,4.99,0.00,22.2,21.5,00.0,31.3,23.9,07.0,0000.0,0027.07,0006.21,0003.13
2021-12-07 03:07:00,,0819.1,5.00,0.00,22.2,21.5,00.0,31.3,23.9,07.0,0000.0,0027.95,0006.29,0003.13
2021-12-07 03:08:00,,0819.2,5.00,0.00,22.2,21.4,00.0,31.3,23.9,07.0,0000.0,0029.21,0006.32,0003.13
2021-12-07 03:09:00,,0819.3,5.00,0.00,22.2,21.8,00.0,31.3,24.0,07.0,0000.0,0030.47,0006.31,0003.14
2021-12-07 03:10:00,,0819.3,5.00,0.00,22.4,22.6,00.0,31.3,24.2,07.0,0000.0,0031.19,0006.30,0003.16
2021-12-07 03:11:00,,0819.0,5.01,0.00,22.5,23.3,00.0,31.4,24.5,06.9,0000.0,0030.51,0006.32,0003.18
2021-12-07 03:12:00,,0818.9,5.00,0.00,22.6,23.1,00.0,31.4,24.6,06.9,0000.0,0030.07,0006.33,0003.19
2021-12-07 03:13:00,,0818.9,4.99,0.00,22.6,22.9,00.0,31.4,24.5,06.9,0000.0,0032.20,0006.33,0003.20
2021-12-07 03:14:00,,0819.1,5.02,0.00,22.6,22.6,00.0,31.4,24.4,06.9,0000.0,0031.90,0006.41,0003.23
2021-12-07 03:15:00,,0819.4,5.00,0.00,22.6,22.4,00.0,31.4,24.3,06.9,0000.0,0033.81,0006.46,0003.26
2021-12-07 03:16:00,,0819.4,4.99,0.00,22.5,22.3,00.0,31.4,24.3,06.9,0000.0,0034.50,0006.46,0003.29
2021-12-07 03:17:00,,0819.2,5.01,0.00,22.5,22.1,00.0,31.4,24.2,06.9,0000.0,0033.69,0006.56,0003.32
2021-12-07 03:18:00,,0819.2,4.98,0.00,22.5,22.0,00.0,31.4,24.2,07.0,0000.0,0033.35,0006.59,0003.33
2021-12-07 03:19:00,,0819.2,5.01,0.00,22.5,21.9,00.0,31.4,24.1,07.0,0000.0,0033.31,0006.66,0003.36
2021-12-07 03:20:00,,0819.2,4.99,0.00,22.4,21.8,00.0,31.4,24.1,07.0,0000.0,0034.08,0006.71,0003.37
2021-12-07 03:21:00,,0819.2,5.01,0.00,22.4,21.8,00.0,31.4,24.1,07.0,0000.0,0034.26,0006.76,0003.40
2021-12-07 03:22:00,,0819.3,4.99,0.00,22.4,21.7,00.0,31.4,24.1,07.0,0000.0,0036.15,0006.80,0003.43
2021-12-07 03:23:00,,0819.3,4.99,0.00,22.4,21.7,00.0,31.4,24.1,07.0,0000.0,0038.59,0006.85,0003.46
2021-12-07 03:24:00,,0819.2,5.00,0.00,22.4,21.5,00.0,31.4,24.1,07.1,0000.0,0036.48,0006.84,0003.49
2021-12-07 03:25:00,,0819.2,5.01,0.00,22.3,21.5,00.0,31.4,24.0,07.0,0000.0,0035.23,0006.79,0003.50
2021-12-07 03:26:00,,0819.1,4.99,0.00,22.3,21.5,00.0,31.4,24.0,07.0,0000.0,0033.86,0006.82,0003.51
2021-12-07 03:27:00,,0819.0,5.01,0.00,22.3,21.5,00.0,31.4,24.0,07.0,0000.0,0032.75,0006.85,0003.51
2021-12-07 03:28:00,,0818.9,5.00,0.00,22.3,21.5,00.0,31.4,24.0,07.1,0000.0,0033.96,0006.91,0003.54
2021-12-07 03:29:00,,0819.0,4.99,0.00,22.3,21.5,00.0,31.3,23.9,07.1,0000.0,0034.12,0006.96,0003.55
2021-12-07 03:30:00,,0819.0,5.01,0.00,22.3,21.4,00.0,31.3,23.9,07.1,0000.0,0033.67,0007.01,0003.56
2021-12-07 03:31:00,,0819.1,4.99,0.00,22.2,21.4,00.0,31.3,23.9,07.1,0000.0,0032.93,0007.03,0003.57
2021-12-07 03:32:00,,0819.2,5.00,0.00,22.2,21.5,00.0,31.3,23.9,07.1,0000.0,0032.14,0007.05,0003.57
2021-12-07 03:33:00,,0819.4,5.00,0.00,22.3,22.1,00.0,31.3,24.1,07.1,0000.0,0031.25,0007.08,0003.56
2021-12-07 03:34:00,,0819.3,5.00,0.00,22.4,22.9,00.0,31.4,24.3,07.1,0000.0,0028.71,0007.06,0003.54
2021-12-07 03:35:00,,0819.1,4.99,0.00,22.6,23.2,00.0,31.4,24.5,07.0,0000.0,0029.89,0007.04,0003.53
2021-12-07 03:36:00,,0818.9,5.01,0.00,22.6,23.0,00.0,31.4,24.5,07.0,0000.0,0031.22,0007.07,0003.54
2021-12-07 03:37:00,,0819.0,4.99,0.00,22.6,22.7,00.0,31.4,24.4,07.1,0000.0,0031.01,0007.10,0003.55
2021-12-07 03:38:00,,0818.9,5.01,0.00,22.6,22.6,00.0,31.4,24.4,07.0,0000.0,0031.94,0007.14,0003.54
2021-12-07 03:39:00,,0818.9,4.99,0.00,22.6,22.4,00.0,31.4,24.3,07.1,0000.0,0030.63,0007.13,0003.52
2021-12-07 03:40:00,,0819.3,4.99,0.00,22.5,22.2,00.0,31.5,24.2,07.3,0000.0,0030.25,0007.18,0003.51
2021-12-07 03:41:00,,0819.3,5.02,0.00,22.5,22.0,00.0,31.5,24.2,07.3,0000.0,0030.88,0007.24,0003.52
2021-12-07 03:42:00,,0819.0,4.99,0.00,22.5,21.9,00.0,31.4,24.1,07.2,0000.0,0030.10,0007.22,0003.52
2021-12-07 03:43:00,,0818.9,5.01,0.00,22.4,21.8,00.0,31.4,24.1,07.3,0000.0,0030.26,0007.25,0003.51
2021-12-07 03:44:00,,0819.0,4.98,0.00,22.4,21.7,00.0,31.4,24.0,07.3,0000.0,0030.71,0007.23,0003.51
2021-12-07 03:45:00,,0819.0,5.01,0.00,22.4,21.7,00.0,31.4,24.0,07.3,0000.0,0031.15,0007.32,0003.52
2021-12-07 03:46:00,,0818.9,4.99,0.00,22.4,21.6,00.0,31.4,24.0,07.4,0000.0,0032.67,0007.49,0003.53
2021-12-07 03:47:00,,0818.9,5.01,0.00,22.3,21.6,00.0,31.4,24.0,07.4,0000.0,0034.22,0007.67,0003.54
2021-12-07 03:48:00,,0819.0,4.99,0.00,22.3,21.6,00.0,31.4,24.0,07.4,0000.0,0037.69,0007.82,0003.56
2021-12-07 03:49:00,,0819.0,5.00,0.00,22.3,21.5,00.0,31.4,23.9,07.3,0000.0,0039.56,0007.95,0003.58
2021-12-07 03:50:00,,0819.0,5.01,0.00,22.3,21.5,00.0,31.4,23.9,07.4,0000.0,0041.71,0007.92,0003.61
2021-12-07 03:51:00,,0819.0,4.99,0.00,22.2,21.4,00.0,31.3,23.8,07.4,-000.0,0044.20,0007.90,0003.62
2021-12-07 03:52:00,,0819.1,5.02,0.00,22.2,21.3,00.0,31.3,23.7,07.4,-000.0,0046.15,0007.95,0003.62
2021-12-07 03:53:00,,0819.0,5.01,0.00,22.1,21.3,00.0,31.3,23.6,07.4,0000.0,0049.09,0008.05,0003.64
2021-12-07 03:54:00,,0818.8,4.98,0.00,22.1,21.6,00.0,31.3,23.7,07.4,0000.0,0050.05,0008.13,0003.66
2021-12-07 03:55:00,,0818.8,5.00,0.00,22.2,22.4,00.0,31.3,24.0,07.4,0000.0,0049.72,0008.23,0003.67
2021-12-07 03:56:00,,0818.8,5.00,0.00,22.4,23.1,00.0,31.3,24.3,07.4,0000.0,0051.42,0008.28,0003.67
2021-12-07 03:57:00,,0818.9,5.01,0.00,22.5,22.9,00.0,31.4,24.4,07.3,0000.0,0049.41,0008.16,0003.68
2021-12-07 03:58:00,,0818.9,5.00,0.00,22.4,22.6,00.0,31.4,24.2,07.4,0000.0,0047.71,0008.07,0003.68
2021-12-07 03:59:00,,0818.9,4.99,0.00,22.4,22.3,00.0,31.4,24.1,07.4,0000.0,0045.99,0007.95,0003.67
